CPA588 VHHH-RJFF

Flight info

Callsign CPA588
Flight time 2h 50m
Altitude 41000
Route DALOL V631 ENVAR M750 MOMPA Y25 ISKUP
Aircraft A333/H-SDE3GHIJ2J3J5M1RVWXY/LB2D1

Departure

Time 2026-05-07 08:29
Airport Hong Kong International Airport (VHHH)

Arrival

Time 2026-05-07 11:20
Airport Fukuoka Airport (RJFF)
Time Latitude Longitude Altitude Speed Heading
2026-05-07 07:41 22.31261 113.92837 39 ft 0 kts 342°
2026-05-07 08:16 22.31258 113.92838 39 ft 0 kts 342°
2026-05-07 08:16 22.31248 113.92842 39 ft 2 kts 338°
2026-05-07 08:17 22.31234 113.92849 39 ft 2 kts 326°
2026-05-07 08:17 22.31222 113.92859 39 ft 2 kts 316°
2026-05-07 08:17 22.31212 113.92871 39 ft 2 kts 307°
2026-05-07 08:17 22.31204 113.92885 39 ft 2 kts 297°
2026-05-07 08:18 22.31197 113.92899 39 ft 2 kts 287°
2026-05-07 08:18 22.31194 113.92915 39 ft 2 kts 277°
2026-05-07 08:18 22.31193 113.92931 39 ft 2 kts 268°
2026-05-07 08:18 22.31194 113.92947 39 ft 2 kts 258°
2026-05-07 08:19 22.31196 113.92958 39 ft 0 kts 252°
2026-05-07 08:19 22.31197 113.92960 39 ft 0 kts 251°
2026-05-07 08:21 22.31190 113.92940 39 ft 5 kts 249°
2026-05-07 08:22 22.31173 113.92902 39 ft 4 kts 234°
2026-05-07 08:22 22.31152 113.92883 39 ft 3 kts 212°
2026-05-07 08:22 22.31110 113.92858 39 ft 14 kts 206°
2026-05-07 08:22 22.30990 113.92795 39 ft 21 kts 205°
2026-05-07 08:23 22.30871 113.92733 39 ft 15 kts 213°
2026-05-07 08:23 22.30817 113.92635 39 ft 17 kts 250°
2026-05-07 08:23 22.30771 113.92493 39 ft 22 kts 251°
2026-05-07 08:23 22.30715 113.92321 39 ft 26 kts 250°
2026-05-07 08:24 22.30651 113.92125 39 ft 28 kts 251°
2026-05-07 08:24 22.30583 113.91916 39 ft 29 kts 251°
2026-05-07 08:24 22.30517 113.91712 39 ft 28 kts 251°
2026-05-07 08:24 22.30455 113.91517 39 ft 26 kts 251°
2026-05-07 08:25 22.30397 113.91334 39 ft 25 kts 252°
2026-05-07 08:25 22.30341 113.91155 39 ft 24 kts 251°
2026-05-07 08:25 22.30286 113.90987 39 ft 23 kts 250°
2026-05-07 08:25 22.30233 113.90829 39 ft 22 kts 250°
2026-05-07 08:26 22.30139 113.90533 39 ft 19 kts 251°
2026-05-07 08:26 22.30094 113.90397 39 ft 18 kts 251°
2026-05-07 08:26 22.30051 113.90265 39 ft 18 kts 251°
2026-05-07 08:27 22.30011 113.90141 39 ft 17 kts 251°
2026-05-07 08:27 22.29973 113.90021 39 ft 16 kts 251°
2026-05-07 08:27 22.29937 113.89905 39 ft 15 kts 250°
2026-05-07 08:27 22.29898 113.89796 39 ft 15 kts 249°
2026-05-07 08:28 22.29826 113.89737 39 ft 13 kts 175°
2026-05-07 08:28 22.29734 113.89767 39 ft 13 kts 160°
2026-05-07 08:28 22.29659 113.89833 39 ft 16 kts 112°
2026-05-07 08:28 22.29697 113.90040 39 ft 54 kts 70°
2026-05-07 08:29 22.29903 113.90677 39 ft 124 kts 71°
2026-05-07 08:29 22.30258 113.91775 63 ft 179 kts 69°
2026-05-07 08:29 22.30695 113.93098 622 ft 185 kts 70°
2026-05-07 08:29 22.31109 113.94372 1414 ft 183 kts 73°
2026-05-07 08:30 22.31515 113.95624 2237 ft 172 kts 73°
2026-05-07 08:30 22.31894 113.96855 2661 ft 178 kts 75°
2026-05-07 08:30 22.32304 113.98177 2938 ft 194 kts 72°
2026-05-07 08:30 22.32781 113.99641 3228 ft 218 kts 72°
2026-05-07 08:31 22.33298 114.01229 3790 ft 230 kts 72°
2026-05-07 08:31 22.33810 114.02885 4524 ft 232 kts 78°
2026-05-07 08:31 22.33836 114.04557 5204 ft 234 kts 102°
2026-05-07 08:31 22.33256 114.06197 5904 ft 237 kts 122°
2026-05-07 08:32 22.32187 114.07513 6574 ft 240 kts 142°
2026-05-07 08:32 22.30670 114.08451 6966 ft 257 kts 162°
2026-05-07 08:32 22.28890 114.08829 7605 ft 263 kts 180°
2026-05-07 08:32 22.27035 114.08742 8132 ft 275 kts 184°
2026-05-07 08:33 22.25049 114.08699 8640 ft 288 kts 182°
2026-05-07 08:33 22.23037 114.08675 9365 ft 291 kts 182°
2026-05-07 08:33 22.21012 114.08653 10138 ft 292 kts 182°
2026-05-07 08:33 22.18940 114.08638 10504 ft 309 kts 181°
2026-05-07 08:34 22.16726 114.09114 10619 ft 336 kts 159°
2026-05-07 08:34 22.14712 114.10513 10781 ft 360 kts 139°
2026-05-07 08:34 22.13178 114.12748 11017 ft 379 kts 117°
2026-05-07 08:34 22.12435 114.15465 11494 ft 386 kts 100°
2026-05-07 08:35 22.11651 114.18241 12090 ft 386 kts 117°
2026-05-07 08:35 22.10311 114.20782 12661 ft 389 kts 119°
2026-05-07 08:35 22.09078 114.23361 13188 ft 392 kts 118°
2026-05-07 08:35 22.07690 114.25895 13693 ft 395 kts 129°
2026-05-07 08:36 22.05687 114.27914 14177 ft 395 kts 147°
2026-05-07 08:36 22.03398 114.29607 14677 ft 398 kts 145°
2026-05-07 08:36 22.01169 114.31368 15168 ft 400 kts 146°
2026-05-07 08:36 21.98905 114.33149 15658 ft 403 kts 146°
2026-05-07 08:37 21.96605 114.34959 16146 ft 406 kts 146°
2026-05-07 08:37 21.94326 114.36753 16613 ft 409 kts 146°
2026-05-07 08:37 21.92025 114.38565 17074 ft 411 kts 145°
2026-05-07 08:37 21.89690 114.40402 17515 ft 414 kts 146°
2026-05-07 08:38 21.87360 114.42239 17920 ft 417 kts 145°
2026-05-07 08:38 21.85248 114.44450 18295 ft 425 kts 128°
2026-05-07 08:38 21.83825 114.47263 18658 ft 431 kts 110°
2026-05-07 08:38 21.83111 114.50356 19034 ft 434 kts 103°
2026-05-07 08:39 21.82369 114.53519 19429 ft 436 kts 105°
2026-05-07 08:39 21.81578 114.56682 19844 ft 438 kts 105°
2026-05-07 08:39 21.80770 114.59842 20223 ft 440 kts 105°
2026-05-07 08:39 21.79955 114.63006 20574 ft 443 kts 105°
2026-05-07 08:40 21.79125 114.66214 20894 ft 446 kts 106°
2026-05-07 08:40 21.78292 114.69432 21207 ft 449 kts 106°
2026-05-07 08:40 21.77453 114.72663 21495 ft 452 kts 106°
2026-05-07 08:40 21.76606 114.75925 21804 ft 455 kts 106°
2026-05-07 08:41 21.75749 114.79224 22129 ft 457 kts 106°
2026-05-07 08:41 21.74897 114.82503 22460 ft 458 kts 105°
2026-05-07 08:41 21.74324 114.85859 22789 ft 459 kts 93°
2026-05-07 08:41 21.74345 114.89281 23108 ft 459 kts 89°
2026-05-07 08:42 21.74355 114.92727 23360 ft 463 kts 89°
2026-05-07 08:42 21.74360 114.96182 23624 ft 466 kts 89°
2026-05-07 08:42 21.74360 114.99664 23902 ft 468 kts 89°
2026-05-07 08:42 21.74359 115.03144 24202 ft 470 kts 89°
2026-05-07 08:43 21.74357 115.06679 24516 ft 471 kts 89°
2026-05-07 08:43 21.74354 115.10210 24828 ft 473 kts 89°
2026-05-07 08:43 21.74351 115.13738 25101 ft 475 kts 89°
2026-05-07 08:43 21.74347 115.17275 25363 ft 478 kts 89°
2026-05-07 08:44 21.74342 115.20864 25623 ft 480 kts 89°
2026-05-07 08:44 21.74336 115.24458 25874 ft 483 kts 89°
2026-05-07 08:44 21.74329 115.28084 26125 ft 486 kts 89°
2026-05-07 08:44 21.74321 115.31697 26404 ft 488 kts 89°
2026-05-07 08:45 21.74313 115.35340 26704 ft 489 kts 89°
2026-05-07 08:45 21.74304 115.39003 27000 ft 490 kts 89°
2026-05-07 08:45 21.74294 115.42663 27278 ft 492 kts 89°
2026-05-07 08:45 21.74283 115.46365 27540 ft 494 kts 89°
2026-05-07 08:46 21.74271 115.50038 27803 ft 496 kts 89°
2026-05-07 08:46 21.74258 115.53763 28071 ft 498 kts 89°
2026-05-07 08:46 21.74245 115.57446 28318 ft 500 kts 89°
2026-05-07 08:46 21.74232 115.61222 28565 ft 502 kts 89°
2026-05-07 08:47 21.74217 115.64954 28804 ft 504 kts 89°
2026-05-07 08:47 21.74203 115.68748 29055 ft 505 kts 89°
2026-05-07 08:47 21.74188 115.72519 29331 ft 506 kts 89°
2026-05-07 08:47 21.74171 115.76282 29668 ft 505 kts 89°
2026-05-07 08:48 21.74154 115.80048 30018 ft 504 kts 89°
2026-05-07 08:48 21.74136 115.83757 30375 ft 503 kts 89°
2026-05-07 08:48 21.74118 115.87506 30745 ft 501 kts 89°
2026-05-07 08:48 21.74097 115.91247 31108 ft 500 kts 89°
2026-05-07 08:49 21.74078 115.95004 31473 ft 499 kts 89°
2026-05-07 08:49 21.74056 115.98695 31847 ft 498 kts 89°
2026-05-07 08:49 21.74033 116.02440 32245 ft 496 kts 89°
2026-05-07 08:49 21.74011 116.06121 32651 ft 494 kts 89°
2026-05-07 08:50 21.73987 116.09777 33066 ft 492 kts 88°
2026-05-07 08:50 21.73963 116.13469 33435 ft 492 kts 88°
2026-05-07 08:50 21.73939 116.17152 33778 ft 492 kts 88°
2026-05-07 08:50 21.73913 116.20818 34142 ft 491 kts 88°
2026-05-07 08:51 21.73885 116.24480 34523 ft 491 kts 88°
2026-05-07 08:51 21.73859 116.28095 34906 ft 490 kts 88°
2026-05-07 08:51 21.73831 116.31801 35043 ft 494 kts 88°
2026-05-07 08:51 21.73801 116.35553 34946 ft 497 kts 87°
2026-05-07 08:52 21.73741 116.42950 34935 ft 491 kts 88°
2026-05-07 08:52 21.73677 116.50304 34972 ft 494 kts 87°
2026-05-07 08:53 21.73609 116.57696 34966 ft 493 kts 87°
2026-05-07 08:53 21.73540 116.65015 34964 ft 492 kts 88°
2026-05-07 08:54 21.73465 116.72424 34961 ft 492 kts 88°
2026-05-07 08:54 21.73851 116.79689 34943 ft 485 kts 71°
2026-05-07 08:55 21.76262 116.86394 34985 ft 481 kts 64°
2026-05-07 08:55 21.78698 116.93088 34986 ft 480 kts 65°
2026-05-07 08:56 21.81124 116.99795 34976 ft 481 kts 65°
2026-05-07 08:56 21.83545 117.06496 34968 ft 482 kts 65°
2026-05-07 08:57 21.85969 117.13217 34976 ft 483 kts 65°
2026-05-07 08:57 21.88398 117.19964 34973 ft 481 kts 64°
2026-05-07 08:58 21.90813 117.26675 34973 ft 482 kts 65°
2026-05-07 08:58 21.93229 117.33402 34972 ft 481 kts 65°
2026-05-07 08:59 21.95640 117.40129 34972 ft 481 kts 65°
2026-05-07 08:59 21.98047 117.46851 34974 ft 481 kts 65°
2026-05-07 09:00 22.01016 117.53253 34952 ft 475 kts 53°
2026-05-07 09:00 22.04468 117.59311 34976 ft 475 kts 54°
2026-05-07 09:01 22.07931 117.65410 34974 ft 476 kts 54°
2026-05-07 09:01 22.11402 117.71531 34971 ft 477 kts 54°
2026-05-07 09:02 22.14852 117.77623 34973 ft 476 kts 54°
2026-05-07 09:02 22.18310 117.83735 34977 ft 477 kts 54°
2026-05-07 09:03 22.21759 117.89842 34985 ft 477 kts 54°
2026-05-07 09:03 22.25182 117.95904 34995 ft 478 kts 54°
2026-05-07 09:04 22.28617 118.01944 34995 ft 478 kts 53°
2026-05-07 09:04 22.32158 118.08005 34994 ft 478 kts 53°
2026-05-07 09:05 22.35715 118.14102 34991 ft 479 kts 54°
2026-05-07 09:05 22.39277 118.20220 34995 ft 478 kts 54°
2026-05-07 09:06 22.42770 118.26344 34993 ft 480 kts 54°
2026-05-07 09:06 22.46246 118.32478 34989 ft 479 kts 55°
2026-05-07 09:07 22.49707 118.38593 34980 ft 479 kts 54°
2026-05-07 09:07 22.53174 118.44727 34975 ft 477 kts 55°
2026-05-07 09:08 22.56643 118.50868 34977 ft 479 kts 55°
2026-05-07 09:08 22.60141 118.57007 34975 ft 479 kts 54°
2026-05-07 09:09 22.63630 118.63133 34977 ft 479 kts 54°
2026-05-07 09:09 22.67135 118.69294 34969 ft 480 kts 55°
2026-05-07 09:10 22.70619 118.75427 34973 ft 479 kts 55°
2026-05-07 09:10 22.74123 118.81599 34976 ft 479 kts 55°
2026-05-07 09:11 22.77604 118.87741 34972 ft 479 kts 55°
2026-05-07 09:11 22.81105 118.93924 34974 ft 480 kts 55°
2026-05-07 09:12 22.84576 119.00062 34984 ft 480 kts 55°
2026-05-07 09:12 22.88068 119.06245 34990 ft 480 kts 55°
2026-05-07 09:13 22.91570 119.12452 34990 ft 480 kts 55°
2026-05-07 09:13 22.95047 119.18623 34989 ft 480 kts 55°
2026-05-07 09:14 22.98531 119.24812 34990 ft 480 kts 55°
2026-05-07 09:14 23.02023 119.31024 34986 ft 481 kts 55°
2026-05-07 09:15 23.05498 119.37215 34978 ft 479 kts 55°
2026-05-07 09:15 23.08969 119.43405 34972 ft 479 kts 55°
2026-05-07 09:16 23.12433 119.49587 34976 ft 480 kts 55°
2026-05-07 09:16 23.15916 119.55814 34968 ft 481 kts 55°
2026-05-07 09:17 23.19396 119.62038 34975 ft 481 kts 55°
2026-05-07 09:17 23.22867 119.68255 34973 ft 481 kts 55°
2026-05-07 09:18 23.26333 119.74468 34977 ft 481 kts 55°
2026-05-07 09:18 23.29792 119.80674 34974 ft 481 kts 55°
2026-05-07 09:19 23.33283 119.86947 34975 ft 482 kts 55°
2026-05-07 09:19 23.36908 119.93035 34959 ft 476 kts 45°
2026-05-07 09:20 23.41652 119.97935 34978 ft 472 kts 39°
2026-05-07 09:20 23.46471 120.02889 34975 ft 472 kts 39°
2026-05-07 09:21 23.51256 120.07817 34985 ft 472 kts 39°
2026-05-07 09:21 23.56021 120.12733 34983 ft 472 kts 39°
2026-05-07 09:22 23.60835 120.17703 34992 ft 473 kts 39°
2026-05-07 09:22 23.65657 120.22688 34988 ft 473 kts 39°
2026-05-07 09:23 23.70417 120.27613 34989 ft 473 kts 39°
2026-05-07 09:23 23.75220 120.32587 34992 ft 473 kts 39°
2026-05-07 09:24 23.79993 120.37537 34998 ft 474 kts 39°
2026-05-07 09:24 23.84783 120.42509 34996 ft 474 kts 39°
2026-05-07 09:25 23.89619 120.47536 34997 ft 475 kts 39°
2026-05-07 09:25 23.94399 120.52554 35001 ft 474 kts 39°
2026-05-07 09:26 23.99147 120.57561 35019 ft 473 kts 39°
2026-05-07 09:26 24.03877 120.62552 35014 ft 473 kts 39°
2026-05-07 09:27 24.08647 120.67593 35023 ft 474 kts 40°
2026-05-07 09:28 24.15774 120.75135 35044 ft 474 kts 40°
2026-05-07 09:28 24.20571 120.80219 35051 ft 473 kts 39°
2026-05-07 09:29 24.25297 120.85230 35112 ft 474 kts 39°
2026-05-07 09:29 24.30054 120.90282 35144 ft 474 kts 39°
2026-05-07 09:30 24.34781 120.95308 35175 ft 473 kts 39°
2026-05-07 09:30 24.39505 121.00335 35223 ft 473 kts 39°
2026-05-07 09:31 24.43919 121.05786 35223 ft 480 kts 47°
2026-05-07 09:31 24.48072 121.11506 35252 ft 478 kts 46°
2026-05-07 09:32 24.52234 121.17245 35264 ft 477 kts 46°
2026-05-07 09:32 24.56367 121.22949 35251 ft 478 kts 46°
2026-05-07 09:33 24.60520 121.28689 35230 ft 478 kts 46°
2026-05-07 09:33 24.64688 121.34459 35160 ft 479 kts 46°
2026-05-07 09:34 24.68808 121.40165 35130 ft 479 kts 46°
2026-05-07 09:34 24.72959 121.45927 35099 ft 480 kts 46°
2026-05-07 09:35 24.77099 121.51674 35053 ft 480 kts 47°
2026-05-07 09:35 24.81245 121.57439 35046 ft 481 kts 46°
2026-05-07 09:36 24.85406 121.63232 35017 ft 479 kts 46°
2026-05-07 09:36 24.89555 121.69013 35010 ft 481 kts 46°
2026-05-07 09:37 24.93929 121.74596 35007 ft 479 kts 44°
2026-05-07 09:37 24.98299 121.80157 35003 ft 479 kts 44°
2026-05-07 09:38 25.02681 121.85741 34995 ft 480 kts 44°
2026-05-07 09:38 25.07051 121.91317 34986 ft 481 kts 45°
2026-05-07 09:39 25.11412 121.96891 34975 ft 480 kts 44°
2026-05-07 09:39 25.15764 122.02497 34973 ft 481 kts 45°
2026-05-07 09:40 25.20089 122.08103 34977 ft 480 kts 44°
2026-05-07 09:40 25.24429 122.13734 34976 ft 481 kts 45°
2026-05-07 09:41 25.28743 122.19339 34987 ft 481 kts 45°
2026-05-07 09:41 25.33099 122.25005 34994 ft 482 kts 45°
2026-05-07 09:42 25.37422 122.30640 34984 ft 481 kts 44°
2026-05-07 09:42 25.41749 122.36280 34990 ft 480 kts 44°
2026-05-07 09:43 25.46067 122.41919 34997 ft 481 kts 44°
2026-05-07 09:43 25.50410 122.47596 34998 ft 482 kts 44°
2026-05-07 09:44 25.54764 122.53254 34995 ft 482 kts 44°
2026-05-07 09:44 25.59107 122.58898 34999 ft 482 kts 44°
2026-05-07 09:45 25.63433 122.64529 34996 ft 480 kts 44°
2026-05-07 09:45 25.67777 122.70190 34976 ft 481 kts 45°
2026-05-07 09:46 25.72115 122.75847 34992 ft 483 kts 44°
2026-05-07 09:46 25.76448 122.81509 34989 ft 482 kts 45°
2026-05-07 09:47 25.80809 122.87214 34990 ft 484 kts 44°
2026-05-07 09:47 25.85171 122.92925 34993 ft 483 kts 44°
2026-05-07 09:48 25.89503 122.98607 34980 ft 485 kts 44°
2026-05-07 09:48 25.93838 123.04301 34992 ft 482 kts 44°
2026-05-07 09:49 25.98167 123.09992 34983 ft 485 kts 44°
2026-05-07 09:49 26.02522 123.15726 34997 ft 485 kts 44°
2026-05-07 09:50 26.06863 123.21452 34987 ft 485 kts 44°
2026-05-07 09:50 26.11229 123.27216 34999 ft 485 kts 44°
2026-05-07 09:51 26.15596 123.32990 34999 ft 483 kts 44°
2026-05-07 09:51 26.19926 123.38718 34995 ft 485 kts 44°
2026-05-07 09:52 26.24261 123.44467 34998 ft 484 kts 44°
2026-05-07 09:52 26.28603 123.50227 34997 ft 485 kts 44°
2026-05-07 09:53 26.32976 123.56037 35006 ft 486 kts 44°
2026-05-07 09:53 26.37316 123.61813 35010 ft 487 kts 44°
2026-05-07 09:54 26.41669 123.67614 34995 ft 487 kts 44°
2026-05-07 09:54 26.46002 123.73395 35000 ft 486 kts 44°
2026-05-07 09:55 26.50354 123.79204 35006 ft 488 kts 44°
2026-05-07 09:55 26.54709 123.85030 35005 ft 488 kts 44°
2026-05-07 09:56 26.59058 123.90857 35008 ft 490 kts 43°
2026-05-07 09:56 26.63417 123.96697 35011 ft 488 kts 44°
2026-05-07 09:57 26.67791 124.02559 35009 ft 491 kts 44°
2026-05-07 09:57 26.72172 124.08419 35017 ft 491 kts 44°
2026-05-07 09:58 26.76522 124.14249 35013 ft 489 kts 44°
2026-05-07 09:58 26.80890 124.20106 35023 ft 489 kts 44°
2026-05-07 09:59 26.85276 124.25993 35017 ft 491 kts 44°
2026-05-07 09:59 26.89653 124.31883 35022 ft 492 kts 44°
2026-05-07 10:00 26.94014 124.37760 35026 ft 492 kts 44°
2026-05-07 10:00 26.98394 124.43662 35019 ft 492 kts 44°
2026-05-07 10:01 27.02774 124.49571 35024 ft 494 kts 44°
2026-05-07 10:01 27.07166 124.55504 35016 ft 491 kts 44°
2026-05-07 10:02 27.11528 124.61402 35023 ft 492 kts 44°
2026-05-07 10:02 27.15887 124.67304 35020 ft 494 kts 45°
2026-05-07 10:03 27.20278 124.73263 35011 ft 491 kts 44°
2026-05-07 10:03 27.24638 124.79186 35021 ft 489 kts 44°
2026-05-07 10:04 27.29020 124.85143 35020 ft 494 kts 45°
2026-05-07 10:04 27.33374 124.91082 35027 ft 492 kts 45°
2026-05-07 10:05 27.37739 124.97028 35022 ft 491 kts 44°
2026-05-07 10:05 27.42102 125.02943 35024 ft 492 kts 44°
2026-05-07 10:06 27.46493 125.08869 35024 ft 492 kts 44°
2026-05-07 10:06 27.50873 125.14778 35025 ft 493 kts 44°
2026-05-07 10:07 27.55304 125.20773 35030 ft 494 kts 44°
2026-05-07 10:07 27.59694 125.26720 35029 ft 491 kts 44°
2026-05-07 10:08 27.64094 125.32680 35030 ft 495 kts 44°
2026-05-07 10:08 27.68529 125.38708 35031 ft 493 kts 44°
2026-05-07 10:09 27.72907 125.44660 35031 ft 493 kts 44°
2026-05-07 10:09 27.77303 125.50649 35035 ft 490 kts 44°
2026-05-07 10:10 27.81677 125.56612 35039 ft 493 kts 44°
2026-05-07 10:10 27.86059 125.62597 35046 ft 490 kts 44°
2026-05-07 10:11 27.90410 125.68542 35032 ft 494 kts 45°
2026-05-07 10:11 27.94793 125.74545 35041 ft 496 kts 45°
2026-05-07 10:12 27.99189 125.80573 35036 ft 495 kts 45°
2026-05-07 10:12 28.03552 125.86568 35043 ft 493 kts 45°
2026-05-07 10:13 28.07934 125.92591 35048 ft 496 kts 45°
2026-05-07 10:13 28.12314 125.98624 35049 ft 494 kts 45°
2026-05-07 10:14 28.16695 126.04670 35052 ft 493 kts 45°
2026-05-07 10:14 28.21047 126.10677 35058 ft 494 kts 45°
2026-05-07 10:15 28.25429 126.16736 35051 ft 494 kts 45°
2026-05-07 10:15 28.29778 126.22762 35047 ft 493 kts 45°
2026-05-07 10:16 28.34164 126.28841 35048 ft 495 kts 45°
2026-05-07 10:16 28.38565 126.34956 35041 ft 494 kts 45°
2026-05-07 10:17 28.42935 126.41033 35044 ft 496 kts 45°
2026-05-07 10:17 28.47297 126.47113 35291 ft 499 kts 45°
2026-05-07 10:17 28.49477 126.50158 35762 ft 496 kts 45°
2026-05-07 10:18 28.51669 126.53215 36281 ft 493 kts 44°
2026-05-07 10:18 28.53844 126.56256 36732 ft 492 kts 45°
2026-05-07 10:18 28.55992 126.59257 37071 ft 489 kts 44°
2026-05-07 10:19 28.60350 126.65353 36995 ft 497 kts 45°
2026-05-07 10:19 28.64679 126.71421 37008 ft 494 kts 45°
2026-05-07 10:20 28.69007 126.77492 37020 ft 495 kts 45°
2026-05-07 10:20 28.73367 126.83621 37020 ft 494 kts 45°
2026-05-07 10:21 28.77709 126.89727 37026 ft 498 kts 45°
2026-05-07 10:21 28.82075 126.95882 37022 ft 496 kts 45°
2026-05-07 10:22 28.86418 127.02013 37026 ft 495 kts 45°
2026-05-07 10:22 28.90809 127.08218 37031 ft 499 kts 45°
2026-05-07 10:23 28.95150 127.14364 37027 ft 495 kts 45°
2026-05-07 10:23 28.99466 127.20480 37026 ft 497 kts 45°
2026-05-07 10:24 29.03829 127.26674 37031 ft 498 kts 45°
2026-05-07 10:24 29.08158 127.32828 37030 ft 500 kts 45°
2026-05-07 10:25 29.12537 127.39066 37036 ft 498 kts 45°
2026-05-07 10:25 29.14715 127.42169 37168 ft 501 kts 45°
2026-05-07 10:25 29.16895 127.45252 37536 ft 499 kts 45°
2026-05-07 10:25 29.19098 127.48337 38105 ft 493 kts 44°
2026-05-07 10:26 29.21251 127.51406 37915 ft 502 kts 46°
2026-05-07 10:26 29.23418 127.54579 37797 ft 491 kts 45°
2026-05-07 10:26 29.25518 127.57597 37451 ft 488 kts 45°
2026-05-07 10:26 29.27668 127.60675 37206 ft 500 kts 45°
2026-05-07 10:27 29.29858 127.63814 36981 ft 507 kts 45°
2026-05-07 10:27 29.34219 127.70080 36984 ft 499 kts 46°
2026-05-07 10:28 29.38539 127.76287 36969 ft 497 kts 46°
2026-05-07 10:28 29.42894 127.82552 36928 ft 499 kts 46°
2026-05-07 10:29 29.47204 127.88763 36914 ft 501 kts 46°
2026-05-07 10:29 29.51548 127.95036 36947 ft 501 kts 46°
2026-05-07 10:30 29.58064 128.04451 36926 ft 501 kts 46°
2026-05-07 10:30 29.62379 128.10698 36960 ft 498 kts 46°
2026-05-07 10:31 29.66728 128.17003 36986 ft 501 kts 46°
2026-05-07 10:31 29.71066 128.23300 36952 ft 500 kts 46°
2026-05-07 10:32 29.75400 128.29601 36944 ft 501 kts 46°
2026-05-07 10:32 29.79729 128.35907 36966 ft 500 kts 46°
2026-05-07 10:33 29.84028 128.42181 36995 ft 497 kts 46°
2026-05-07 10:33 29.88322 128.48456 36968 ft 496 kts 46°
2026-05-07 10:34 29.92618 128.54738 36949 ft 500 kts 46°
2026-05-07 10:34 29.96921 128.61049 36974 ft 499 kts 46°
2026-05-07 10:35 30.01223 128.67364 36984 ft 498 kts 47°
2026-05-07 10:35 30.05516 128.73673 36964 ft 498 kts 47°
2026-05-07 10:36 30.09780 128.79950 36945 ft 500 kts 47°
2026-05-07 10:36 30.14063 128.86269 36952 ft 498 kts 47°
2026-05-07 10:37 30.18331 128.92569 36986 ft 498 kts 47°
2026-05-07 10:37 30.22601 128.98888 36969 ft 497 kts 47°
2026-05-07 10:38 30.26839 129.05171 36942 ft 498 kts 47°
2026-05-07 10:38 30.31103 129.11497 36951 ft 499 kts 47°
2026-05-07 10:39 30.35387 129.17866 36984 ft 498 kts 47°
2026-05-07 10:39 30.39625 129.24178 36980 ft 498 kts 47°
2026-05-07 10:40 30.43895 129.30545 36934 ft 499 kts 47°
2026-05-07 10:40 30.48158 129.36912 36933 ft 499 kts 47°
2026-05-07 10:41 30.52384 129.43234 36971 ft 499 kts 47°
2026-05-07 10:41 30.56643 129.49618 36981 ft 498 kts 47°
2026-05-07 10:42 30.60904 129.56012 36945 ft 499 kts 48°
2026-05-07 10:42 30.65155 129.62405 36927 ft 499 kts 48°
2026-05-07 10:43 30.69383 129.68770 36935 ft 500 kts 48°
2026-05-07 10:43 30.73612 129.75145 36966 ft 500 kts 48°
2026-05-07 10:44 30.77867 129.81576 36944 ft 500 kts 48°
2026-05-07 10:44 30.82171 129.87946 36920 ft 496 kts 42°
2026-05-07 10:45 30.84788 129.90442 36941 ft 483 kts 25°
2026-05-07 10:45 30.87835 129.92023 36980 ft 473 kts
2026-05-07 10:45 30.91027 129.92592 36933 ft 460 kts 355°
2026-05-07 10:45 30.94248 129.92740 36983 ft 461 kts 357°
2026-05-07 10:46 31.00682 129.93372 36943 ft 460 kts 359°
2026-05-07 10:46 31.07109 129.94069 36917 ft 461 kts 359°
2026-05-07 10:47 31.13527 129.94775 36942 ft 461 kts 359°
2026-05-07 10:47 31.19934 129.95483 36969 ft 461 kts 359°
2026-05-07 10:48 31.26397 129.96197 36946 ft 462 kts 359°
2026-05-07 10:48 31.32833 129.96786 36921 ft 461 kts 357°
2026-05-07 10:49 31.39232 129.97290 36944 ft 461 kts 358°
2026-05-07 10:49 31.45676 129.97800 36966 ft 459 kts 358°
2026-05-07 10:50 31.52050 129.98305 36944 ft 457 kts 358°
2026-05-07 10:50 31.58432 129.98811 36924 ft 460 kts 358°
2026-05-07 10:51 31.64855 129.99321 36940 ft 461 kts 358°
2026-05-07 10:51 31.71309 129.99837 36969 ft 460 kts 358°
2026-05-07 10:52 31.77775 130.00351 36955 ft 461 kts 358°
2026-05-07 10:52 31.84208 130.00865 36924 ft 460 kts 358°
2026-05-07 10:53 31.90615 130.01378 36932 ft 460 kts 358°
2026-05-07 10:53 31.96989 130.01889 36965 ft 459 kts 358°
2026-05-07 10:54 32.03411 130.02402 36961 ft 460 kts 358°
2026-05-07 10:54 32.09886 130.02924 36931 ft 461 kts 358°
2026-05-07 10:55 32.16302 130.03439 36928 ft 462 kts 358°
2026-05-07 10:55 32.22726 130.03960 36956 ft 459 kts 358°
2026-05-07 10:56 32.29122 130.04477 36966 ft 456 kts 358°
2026-05-07 10:56 32.35506 130.04991 36931 ft 458 kts 358°
2026-05-07 10:57 32.41874 130.05508 36918 ft 459 kts 358°
2026-05-07 10:57 32.48301 130.06030 36948 ft 459 kts 358°
2026-05-07 10:58 32.54708 130.06552 36949 ft 459 kts 358°
2026-05-07 10:58 32.61156 130.06897 36922 ft 452 kts 348°
2026-05-07 10:59 32.67226 130.05345 36950 ft 447 kts 341°
2026-05-07 10:59 32.73301 130.03775 36982 ft 445 kts 342°
2026-05-07 11:00 32.79398 130.02220 36959 ft 444 kts 342°
2026-05-07 11:00 32.85484 130.00670 36925 ft 446 kts 342°
2026-05-07 11:01 32.91582 129.99115 36933 ft 447 kts 342°
2026-05-07 11:01 32.97648 129.97566 36975 ft 446 kts 341°
2026-05-07 11:02 33.03775 129.95999 36976 ft 445 kts 341°
2026-05-07 11:02 33.09842 129.94446 36960 ft 444 kts 341°
2026-05-07 11:03 33.15917 129.92888 36935 ft 447 kts 341°
2026-05-07 11:03 33.22043 129.91315 36948 ft 446 kts 341°
2026-05-07 11:04 33.28105 129.89758 36970 ft 445 kts 341°
2026-05-07 11:04 33.34195 129.88188 36625 ft 447 kts 341°
2026-05-07 11:05 33.37225 129.87405 35486 ft 455 kts 342°
2026-05-07 11:05 33.40338 129.86601 34187 ft 459 kts 342°
2026-05-07 11:05 33.43506 129.85783 32525 ft 466 kts 342°
2026-05-07 11:05 33.46649 129.85086 30798 ft 478 kts 349°
2026-05-07 11:06 33.50036 129.85226 28827 ft 505 kts
2026-05-07 11:06 33.53447 129.86441 27581 ft 506 kts 15°
2026-05-07 11:06 33.56692 129.87718 26137 ft 488 kts 12°
2026-05-07 11:06 33.59882 129.88869 24268 ft 483 kts 12°
2026-05-07 11:07 33.63026 129.89995 23340 ft 457 kts 11°
2026-05-07 11:07 33.65986 129.91055 22569 ft 433 kts 11°
2026-05-07 11:07 33.68815 129.92065 22149 ft 414 kts 11°
2026-05-07 11:07 33.71477 129.93018 21975 ft 392 kts 10°
2026-05-07 11:08 33.74009 129.93929 21934 ft 368 kts
2026-05-07 11:08 33.76448 129.94797 21420 ft 363 kts 10°
2026-05-07 11:08 33.78867 129.95387 20784 ft 351 kts 356°
2026-05-07 11:08 33.81294 129.95570 20185 ft 348 kts 356°
2026-05-07 11:09 33.83723 129.95769 19579 ft 346 kts 356°
2026-05-07 11:09 33.86081 129.95961 19262 ft 334 kts 356°
2026-05-07 11:09 33.88317 129.96480 19045 ft 326 kts 16°
2026-05-07 11:09 33.90350 129.97644 18637 ft 320 kts 21°
2026-05-07 11:10 33.92320 129.98816 18149 ft 315 kts 21°
2026-05-07 11:10 33.94076 130.00352 17559 ft 320 kts 47°
2026-05-07 11:10 33.95212 130.02650 16980 ft 320 kts 74°
2026-05-07 11:10 33.95471 130.05220 16479 ft 309 kts 100°
2026-05-07 11:11 33.94855 130.07622 15910 ft 296 kts 128°
2026-05-07 11:11 33.93590 130.09495 15381 ft 285 kts 137°
2026-05-07 11:11 33.92348 130.11317 14852 ft 285 kts 134°
2026-05-07 11:11 33.91125 130.13193 14370 ft 280 kts 133°
2026-05-07 11:12 33.89957 130.15002 13959 ft 275 kts 133°
2026-05-07 11:12 33.88789 130.16811 13467 ft 273 kts 133°
2026-05-07 11:12 33.87627 130.18611 13001 ft 268 kts 133°
2026-05-07 11:12 33.86522 130.20326 12324 ft 260 kts 133°
2026-05-07 11:13 33.85458 130.21977 11786 ft 237 kts 133°
2026-05-07 11:13 33.84482 130.23489 11366 ft 230 kts 134°
2026-05-07 11:13 33.83496 130.25008 10751 ft 229 kts 133°
2026-05-07 11:13 33.82544 130.26482 9975 ft 229 kts 132°
2026-05-07 11:14 33.81554 130.28008 8994 ft 235 kts 131°
2026-05-07 11:14 33.80606 130.29587 8042 ft 236 kts 130°
2026-05-07 11:14 33.79417 130.30838 7074 ft 226 kts 155°
2026-05-07 11:14 33.78071 130.31758 6123 ft 224 kts 153°
2026-05-07 11:15 33.76745 130.32680 5144 ft 222 kts 153°
2026-05-07 11:15 33.75436 130.33583 4169 ft 222 kts 154°
2026-05-07 11:15 33.74095 130.34495 3219 ft 222 kts 154°
2026-05-07 11:15 33.72847 130.35358 2999 ft 191 kts 154°
2026-05-07 11:16 33.71728 130.36121 2696 ft 180 kts 155°
2026-05-07 11:16 33.70639 130.36861 2497 ft 175 kts 154°
2026-05-07 11:16 33.69610 130.37566 2326 ft 165 kts 155°
2026-05-07 11:16 33.68634 130.38231 2106 ft 154 kts 154°
2026-05-07 11:17 33.67735 130.38846 1852 ft 143 kts 155°
2026-05-07 11:17 33.66878 130.39427 1650 ft 137 kts 154°
2026-05-07 11:17 33.66043 130.39996 1469 ft 141 kts 154°
2026-05-07 11:17 33.65203 130.40572 1289 ft 138 kts 152°
2026-05-07 11:18 33.64352 130.41151 1113 ft 140 kts 153°
2026-05-07 11:18 33.63510 130.41725 910 ft 141 kts 152°
2026-05-07 11:18 33.62664 130.42297 728 ft 141 kts 151°
2026-05-07 11:18 33.61819 130.42876 523 ft 139 kts 152°
2026-05-07 11:19 33.60983 130.43443 367 ft 139 kts 151°
2026-05-07 11:19 33.60145 130.44017 209 ft 141 kts 151°
2026-05-07 11:19 33.59295 130.44589 55 ft 137 kts 151°
2026-05-07 11:19 33.58570 130.45084 48 ft 101 kts 149°
2026-05-07 11:20 33.58169 130.45354 48 ft 43 kts 153°
2026-05-07 11:20 33.57970 130.45419 48 ft 14 kts 175°
2026-05-07 11:20 33.57959 130.45419 48 ft 0 kts 179°
2026-05-07 11:20 33.57952 130.45419 48 ft 4 kts 180°
2026-05-07 11:21 33.57897 130.45416 48 ft 10 kts 190°
2026-05-07 11:21 33.57838 130.45363 48 ft 11 kts 238°
2026-05-07 11:21 33.57799 130.45268 48 ft 13 kts 264°
2026-05-07 11:21 33.57850 130.45186 48 ft 13 kts 323°
2026-05-07 11:22 33.57928 130.45128 48 ft 13 kts 329°
2026-05-07 11:22 33.58008 130.45075 48 ft 12 kts 331°
2026-05-07 11:22 33.58086 130.45023 48 ft 12 kts 328°
2026-05-07 11:22 33.58162 130.44966 48 ft 12 kts 329°
2026-05-07 11:23 33.58239 130.44913 48 ft 12 kts 330°
2026-05-07 11:23 33.58315 130.44864 48 ft 12 kts 332°
2026-05-07 11:23 33.58385 130.44818 48 ft 10 kts 331°
2026-05-07 11:23 33.58444 130.44778 48 ft 8 kts 329°
2026-05-07 11:24 33.58490 130.44745 48 ft 5 kts 321°
2026-05-07 11:24 33.58491 130.44717 48 ft 3 kts 242°
2026-05-07 11:24 33.58475 130.44685 48 ft 5 kts 237°
2026-05-07 11:24 33.58457 130.44650 48 ft 4 kts 239°
2026-05-07 11:25 33.58446 130.44627 48 ft 1 kts 239°
2026-05-07 11:25 33.58443 130.44621 48 ft 0 kts 240°
2026-05-07 11:25 33.58441 130.44618 48 ft 1 kts 239°
2026-05-07 11:25 33.58437 130.44609 48 ft 0 kts 239°
2026-05-07 11:26 33.58436 130.44608 48 ft 0 kts 239°
2026-05-07 11:26 33.58436 130.44606 48 ft 0 kts 239°